Tracking 29892 objects as of 21-Nov-2024
HD Live streaming from Space Station
objects crossing your sky now

METEOR 2-7 DEB

Track METEOR 2-7 DEB now!
10-day predictions


NORAD ID: 28389
Int'l Code: 1981-043F
Perigee: 716.1 km
Apogee: 770.4 km
Inclination: 81.3 °
Period: 99.5 minutes
Semi major axis: 7114 km
RCS: 0.0096 m2 (small)
Launch date: May 14, 1981
Source: Commonwealth of Independent States (former USSR) (CIS)
Launch site: PLESETSK MISSILE AND SPACE COMPLEX (PKMTR)

Note: This is SATELLITE DEBRIS
Your satellite tracking list
Your tracking list is empty




NASA's NSSDC Master Catalog

Two Line Element Set (TLE):
1 28389U 81043F   24324.97680774  .00021172  00000-0  57773-2 0  9993
2 28389  81.2630 158.8773 0038163 295.5076  64.2170 14.46796137 44451
Source of the keplerian elements: AFSPC